Time,TemperatureF,DewpointF,PressureIn,WindDirection,WindDirectionDegrees,WindSpeedMPH,WindSpeedGustMPH,Humidity,HourlyPrecipIn,Conditions,Clouds,dailyrainin,SolarRadiationWatts/m^2,SoftwareType,DateUTC
2013-05-27 01:21:00,39.0,34.0,30.07,SSW,205,4.0,6.0,83,-99.99,,,-99.99,0.000000,,2013-05-27 08:21:00,
2013-05-27 07:40:00,42.0,36.0,30.04,SW,215,2.0,3.0,80,-99.99,,,-99.99,210.000000,,2013-05-27 14:40:00,
2013-05-27 08:21:00,42.0,36.0,30.04,SW,215,2.0,3.0,80,-99.99,,,-99.99,210.000000,,2013-05-27 15:21:00,
2013-05-27 08:33:00,42.0,36.0,30.04,SW,215,2.0,3.0,80,-99.99,,,-99.99,210.000000,,2013-05-27 15:33:00,
2013-05-27 08:40:00,45.0,36.0,30.02,NW,311,2.0,4.0,69,-99.99,,,-99.99,300.000000,,2013-05-27 15:40:00,
2013-05-27 09:23:00,45.0,36.0,30.02,NW,311,2.0,4.0,69,-99.99,,,-99.99,300.000000,,2013-05-27 16:23:00,
2013-05-27 09:33:00,45.0,36.0,30.02,NW,311,2.0,4.0,69,-99.99,,,-99.99,300.000000,,2013-05-27 16:33:00,
2013-05-27 09:40:00,52.0,36.0,30.02,South,173,3.0,5.0,54,-99.99,,,-99.99,330.000000,,2013-05-27 16:40:00,
2013-05-27 10:22:00,52.0,36.0,30.02,South,173,3.0,5.0,54,-99.99,,,-99.99,330.000000,,2013-05-27 17:22:00,
2013-05-27 10:32:00,52.0,36.0,30.02,South,173,3.0,5.0,54,-99.99,,,-99.99,330.000000,,2013-05-27 17:32:00,
2013-05-27 10:40:00,60.0,33.0,30.01,SSE,150,3.0,6.0,36,-99.99,,,-99.99,660.000000,,2013-05-27 17:40:00,
2013-05-27 11:32:00,60.0,33.0,30.01,SSE,150,3.0,6.0,36,-99.99,,,-99.99,660.000000,,2013-05-27 18:32:00,
2013-05-27 11:40:00,61.0,33.0,30.00,West,267,7.0,18.0,35,-99.99,,,-99.99,340.000000,,2013-05-27 18:40:00,
2013-05-27 12:21:00,61.0,33.0,30.00,West,267,7.0,18.0,35,-99.99,,,-99.99,340.000000,,2013-05-27 19:21:00,
2013-05-27 12:32:00,61.0,33.0,30.00,West,267,7.0,18.0,35,-99.99,,,-99.99,340.000000,,2013-05-27 19:32:00,
2013-05-27 12:40:00,59.0,36.0,30.03,WSW,239,13.0,22.0,43,-99.99,,,-99.99,260.000000,,2013-05-27 19:40:00,
2013-05-27 13:22:00,59.0,36.0,30.03,WSW,239,13.0,22.0,43,-99.99,,,-99.99,260.000000,,2013-05-27 20:22:00,
2013-05-27 13:32:00,59.0,36.0,30.03,WSW,239,13.0,22.0,43,-99.99,,,-99.99,260.000000,,2013-05-27 20:32:00,
2013-05-27 13:40:00,55.0,40.0,30.04,SW,229,10.0,19.0,57,-99.99,,,-99.99,200.000000,,2013-05-27 20:40:00,
2013-05-27 14:21:00,55.0,40.0,30.04,SW,229,10.0,19.0,57,-99.99,,,-99.99,200.000000,,2013-05-27 21:21:00,
2013-05-27 14:33:00,55.0,40.0,30.04,SW,229,10.0,19.0,57,-99.99,,,-99.99,200.000000,,2013-05-27 21:33:00,
2013-05-27 14:40:00,54.0,41.0,30.03,SSW,193,7.0,12.0,60,-99.99,,,-99.99,200.000000,,2013-05-27 21:40:00,
2013-05-27 15:22:00,54.0,41.0,30.03,SSW,193,7.0,12.0,60,-99.99,,,-99.99,200.000000,,2013-05-27 22:22:00,
2013-05-27 15:32:00,54.0,41.0,30.03,SSW,193,7.0,12.0,60,-99.99,,,-99.99,200.000000,,2013-05-27 22:32:00,
2013-05-27 15:40:00,57.0,41.0,30.02,NNW,334,6.0,13.0,55,-99.99,,,-99.99,360.000000,,2013-05-27 22:40:00,
2013-05-27 16:32:00,57.0,41.0,30.02,NNW,334,6.0,13.0,55,-99.99,,,-99.99,360.000000,,2013-05-27 23:32:00,
2013-05-27 16:40:00,59.0,41.0,30.01,SSE,156,3.0,5.0,51,-99.99,,,-99.99,270.000000,,2013-05-27 23:40:00,
2013-05-27 17:31:00,59.0,41.0,30.01,SSE,156,3.0,5.0,51,-99.99,,,-99.99,270.000000,,2013-05-28 00:31:00,
2013-05-27 17:40:00,59.0,41.0,30.00,WSW,249,5.0,8.0,52,-99.99,,,-99.99,270.000000,,2013-05-28 00:40:00,
2013-05-27 18:31:00,59.0,41.0,30.00,WSW,249,5.0,8.0,52,-99.99,,,-99.99,270.000000,,2013-05-28 01:31:00,
2013-05-27 18:40:00,58.0,40.0,29.99,West,266,5.0,14.0,52,-99.99,,,-99.99,170.000000,,2013-05-28 01:40:00,
2013-05-27 19:21:00,58.0,40.0,29.99,West,266,5.0,14.0,52,-99.99,,,-99.99,170.000000,,2013-05-28 02:21:00,
2013-05-27 19:32:00,58.0,40.0,29.99,West,266,5.0,14.0,52,-99.99,,,-99.99,170.000000,,2013-05-28 02:32:00,
2013-05-27 19:40:00,56.0,40.0,29.98,NNW,346,5.0,9.0,55,-99.99,,,-99.99,50.000000,,2013-05-28 02:40:00,
2013-05-27 20:21:00,56.0,40.0,29.98,NNW,346,5.0,9.0,55,-99.99,,,-99.99,50.000000,,2013-05-28 03:21:00,
2013-05-27 20:33:00,56.0,40.0,29.98,NNW,346,5.0,9.0,55,-99.99,,,-99.99,50.000000,,2013-05-28 03:33:00,
2013-05-27 20:40:00,55.0,40.0,29.96,WSW,240,6.0,14.0,57,-99.99,,,-99.99,0.000000,,2013-05-28 03:40:00,
2013-05-27 21:22:00,55.0,40.0,29.96,WSW,240,6.0,14.0,57,-99.99,,,-99.99,0.000000,,2013-05-28 04:22:00,
2013-05-27 21:33:00,55.0,40.0,29.96,WSW,240,6.0,14.0,57,-99.99,,,-99.99,0.000000,,2013-05-28 04:33:00,
2013-05-27 21:40:00,54.0,40.0,29.94,SSW,202,4.0,9.0,60,-99.99,,,-99.99,0.000000,,2013-05-28 04:40:00,
2013-05-27 22:22:00,54.0,40.0,29.94,SSW,202,4.0,9.0,60,-99.99,,,-99.99,0.000000,,2013-05-28 05:22:00,
2013-05-27 22:33:00,54.0,40.0,29.94,SSW,202,4.0,9.0,60,-99.99,,,-99.99,0.000000,,2013-05-28 05:33:00,
2013-05-27 22:40:00,54.0,39.0,29.94,WSW,244,6.0,13.0,57,-99.99,,,-99.99,0.000000,,2013-05-28 05:40:00,
2013-05-27 23:21:00,54.0,39.0,29.94,WSW,244,6.0,13.0,57,-99.99,,,-99.99,0.000000,,2013-05-28 06:21:00,
2013-05-27 23:31:00,54.0,39.0,29.94,WSW,244,6.0,13.0,57,-99.99,,,-99.99,0.000000,,2013-05-28 06:31:00,
2013-05-27 23:40:00,53.0,41.0,29.92,WSW,238,3.0,5.0,64,-99.99,,,-99.99,0.000000,,2013-05-28 06:40:00,